Weather History for Curitiba, Brazil

Change the Weather History Date:

Friday, December 13, 2013

  Actual Average Record
Temperature  
Mean Temperature 66 °F -  
Max Temperature 76 °F 77 °F 86 °F (1997)
Min Temperature 57 °F 61 °F 53 °F (2005)
Cooling Degree Days 2    
Growing Degree Days 16 (Base 50)    
Moisture  
Dew Point 58 °F    
Average Humidity 82    
Maximum Humidity 100    
Minimum Humidity 47    
Precipitation  
Precipitation 0.00 in - - ()
Sea Level Pressure  
Sea Level Pressure 30.01 in    
Wind  
Wind Speed 6 mph ()    
Max Wind Speed 12 mph    
Max Gust Speed -    
Visibility 6.9 miles    
Events      
Averages and records for this station are not official NWS values.
T = Trace of Precipitation, MM = Missing Value Source: Averaged Metar Reports

Daily Weather History Graph

Daily Weather History Graph

Search for Another Location

Airport:

Trip Planner

Search our weather history database for the weather conditions in past years. The results will help you decide how hot, cold, wet, or windy it might be!

Date:

Astronomy

Dec. 13, 2013 Rise Set
Actual Time 6:19 AM BRST 8:02 PM BRST
Civil Twilight 5:53 AM BRST 8:28 PM BRST
Nautical Twilight 5:22 AM BRST 8:59 PM BRST
Astronomical Twilight 4:49 AM BRST 9:32 PM BRST
Moon 4:53 PM BRST (12/13) 3:31 AM BRST (12/13)
Length of Visible Light 14h 34m
Length of Day
13h 42m
Waxing Gibbous, 87% of the Moon is Illuminated
Dec 13
Waxing Gibbous
Dec 17
Full
Dec 25
Last Quarter
Jan 1
New
Jan 8
First Quarter

Hourly Weather History & Observations

Time (BRST) Temp. Dew Point Humidity Pressure Visibility Wind Dir Wind Speed Gust Speed Precip Events Conditions
12:00 AM 57.2 °F 57.2 °F 100% 30.06 in 1.9 mi East 8.1 mph - N/A   Light Drizzle
1:00 AM 57.2 °F 57.2 °F 100% 30.06 in 6.2 mi East 8.1 mph - N/A   Mostly Cloudy
2:00 AM 57.2 °F 57.2 °F 100% 30.04 in 6.2 mi East 2.3 mph - N/A   Mostly Cloudy
3:00 AM 57.2 °F 57.2 °F 100% 30.01 in 6.2 mi ESE 1.2 mph - N/A   Mostly Cloudy
4:00 AM 58 °F 57 °F 96%  in 12 mi NE 3.5 mph - -   Mostly Cloudy
4:00 AM 57.2 °F 57.2 °F 100% 30.01 in 6.2 mi NE 3.5 mph - N/A   Mostly Cloudy
5:00 AM 57.2 °F 57.2 °F 100% 30.01 in 6.2 mi ENE 6.9 mph - N/A   Mostly Cloudy
6:00 AM 59.0 °F 57.2 °F 94% 30.01 in 6.2 mi ENE 4.6 mph - N/A   Mostly Cloudy
7:00 AM 59.0 °F 57.2 °F 94% 30.01 in 6.2 mi NE 5.8 mph - N/A   Mostly Cloudy
8:00 AM 60.8 °F 57.2 °F 88% 30.04 in 6.2 mi ENE 5.8 mph - N/A   Mostly Cloudy
9:00 AM 62.6 °F 57.2 °F 82% 30.04 in 6.2 mi ENE 6.9 mph - N/A   Mostly Cloudy
10:00 AM 64 °F 56 °F 68%  in 12 mi ENE 6.9 mph - -   Overcast
10:00 AM 64.4 °F 55.4 °F 73% 30.06 in 6.2 mi ENE 6.9 mph - N/A   Mostly Cloudy
11:00 AM 66.2 °F 57.2 °F 73% 30.06 in 6.2 mi East 6.9 mph - N/A   Mostly Cloudy
12:00 PM 68.0 °F 59.0 °F 73% 30.04 in 6.2 mi ESE 10.4 mph - N/A   Mostly Cloudy
1:00 PM 68.0 °F 57.2 °F 68% 30.04 in 6.2 mi NE 6.9 mph - N/A   Mostly Cloudy
2:00 PM 71.6 °F 59.0 °F 64% 30.01 in 6.2 mi NE 9.2 mph - N/A   Mostly Cloudy
3:00 PM 73.4 °F 57.2 °F 57% 30.01 in 6.2 mi North 6.9 mph - N/A   Mostly Cloudy
4:00 PM 74 °F 58 °F 47%  in 12 mi ENE 8.1 mph - -   Mostly Cloudy
4:00 PM 73.4 °F 57.2 °F 57% 29.98 in 6.2 mi ENE 8.1 mph - N/A   Mostly Cloudy
5:00 PM 77.0 °F 57.2 °F 50% 29.95 in 6.2 mi East 5.8 mph - N/A   Scattered Clouds
6:00 PM 71.6 °F 60.8 °F 69% 29.92 in 6.2 mi East 11.5 mph - N/A   Scattered Clouds
7:00 PM 68.0 °F 60.8 °F 78% 29.92 in 6.2 mi East 11.5 mph - N/A   Partly Cloudy
8:00 PM 64.4 °F 60.8 °F 88% 29.95 in 6.2 mi East 11.5 mph - N/A   Scattered Clouds
9:00 PM 62.6 °F 60.8 °F 94% 29.98 in 6.2 mi East 6.9 mph - N/A   Scattered Clouds
10:00 PM 63 °F 61 °F 92%  in 12 mi East 9.2 mph - -   Mostly Cloudy
10:00 PM 62.6 °F 60.8 °F 94% 29.98 in 6.2 mi East 9.2 mph - N/A   Mostly Cloudy
11:00 PM 62.6 °F 60.8 °F 94% 30.01 in 6.2 mi ENE 5.8 mph - N/A   Mostly Cloudy